#timestamp,LO_Frequency,Hit,StdDev 
1522681215.3,286046999.1,N
1522681235.2,286046998.9,N
1522681255.0,286046998.2,N
1522681255.9,286046998.2,N
1522681275.8,286046998.9,N
1522681295.6,286046998.4,N
1522681315.4,286046996.7,N
1522681335.3,286046996.6,N
1522681355.1,286046997.5,N
1522681375.8,286046997.4,N
1522681395.7,286046997.8,N
1522681415.5,286046996.9,N
1522681435.4,286046999.3,N
1522681455.2,286046996.6,N
1522681475.0,286046996.5,N
1522681475.9,286046996.5,N
1522681495.8,286046999.5,N
1522681515.6,286046998.7,N
1522681535.5,286046998.5,N
1522681555.3,286046998.4,N
1522681575.1,286046998.7,N
1522681595.9,286047001.0,N
1522681615.7,286047000.8,N
1522681635.5,286047000.9,N
1522681655.4,286047000.9,N
1522681675.2,286046999.0,N
1522681695.1,286046999.5,N
1522681696.0,286046999.5,N
1522681715.8,286046996.7,N
1522681735.6,286046996.7,N
1522681755.5,286046996.8,N
1522681775.3,286046996.9,N
1522681795.2,286046996.7,N
1522681815.9,286046997.5,N
1522681835.7,286046998.0,N
1522681855.6,286046997.7,N
1522681875.4,286046996.8,N
1522681895.2,286046996.6,N
1522681915.1,286046998.6,N
1522681916.0,286046998.6,N
1522681935.8,286046998.8,N
1522681955.7,286047000.8,N
1522681975.5,286046998.5,N
1522681995.3,286046998.6,N
1522682015.2,286046999.4,N
1522682035.0,286046998.9,N
1522682035.9,286046998.9,N
1522682055.8,286046999.1,N
1522682075.6,286046999.3,N
1522682095.4,286046999.0,N
1522682115.3,286046998.9,N
1522682135.1,286046998.2,N
1522682155.9,286047000.8,N
1522682175.7,286046998.1,N
1522682195.5,286046998.9,N
1522682215.4,286046999.2,N
1522682235.2,286046997.0,N
1522682255.0,286046997.9,N
1522682255.9,286046997.9,N
1522682275.8,286046997.4,N
1522682295.6,286046995.4,Y
1522682315.5,286046999.5,P
1522682335.3,286046997.1,P
1522682355.1,286046999.4,N
1522682375.9,286047001.2,N
1522682395.7,286046998.8,N
1522682415.6,286046998.1,N
1522682435.4,286047000.5,N
1522682455.3,286047000.0,N
1522682475.1,286047000.9,N
1522682476.0,286047000.9,N
1522682495.8,286046998.1,N
1522682515.7,286046999.9,N
1522682535.5,286046998.5,N
1522682555.3,286047000.5,N
1522682575.2,286046999.7,N
1522682595.0,286047000.6,N
1522682595.9,286047000.6,N
1522682615.8,286047000.5,N
1522682635.6,286047002.7,N
1522682655.4,286047002.7,N
1522682675.3,286047002.8,N
1522682695.1,286047002.6,N
1522682715.9,286047001.6,N
1522682735.7,286047001.7,N
1522682755.5,286047003.8,N
1522682775.4,286047004.4,N
1522682795.2,286047001.5,N
1522682815.0,286047002.3,N
1522682815.9,286047002.3,N
1522682835.8,286047002.1,N
1522682855.6,286047002.8,N
1522682875.5,286047000.3,N
1522682895.3,286047001.2,N
1522682915.1,286046998.2,N
1522682935.9,286047001.1,N
1522682955.7,286047000.3,N
1522682975.5,286047000.6,N
1522682995.4,286046998.3,N
1522683015.2,286046998.7,N
1522683035.1,286046999.2,N
1522683036.0,286046999.2,N
1522683055.8,286046998.8,N
1522683075.6,286046996.8,N
1522683095.5,286046997.9,N
1522683115.3,286046997.6,N
1522683135.2,286046998.0,N
1522683155.9,286046995.4,N
1522683175.7,286046996.3,N
1522683195.6,286046993.9,N
1522683215.4,286046992.2,Y
1522683235.2,286046994.8,P
1522683255.1,286046990.6,P
1522683256.0,286046990.6,N
1522683275.8,286046991.3,N
1522683295.7,286046991.1,N
1522683315.5,286046991.0,N
1522683335.3,286046990.7,N
1522683355.2,286046990.8,N
1522683375.0,286046993.1,N
1522683375.9,286046993.1,N
1522683395.8,286046990.4,Y
1522683415.6,286046997.1,P
1522683435.4,286046997.5,N
1522683455.3,286046994.9,N
1522683475.1,286046995.3,N
1522683495.8,286046995.5,N
1522683515.7,286046993.3,Y
1522683535.5,286047000.1,P
1522683555.4,286047000.7,N
1522683575.2,286046999.9,N
1522683595.0,286046999.9,N
1522683595.9,286046999.9,N
1522683615.8,286047002.3,N
1522683635.6,286047002.5,N
1522683655.5,286047002.1,N
1522683675.3,286046999.8,N
1522683695.1,286046998.7,N
1522683715.9,286046999.0,N
1522683735.7,286046998.9,N
1522683755.6,286046996.7,N
1522683775.4,286046997.5,N
1522683795.2,286046996.1,N
1522683815.1,286046998.0,N
1522683816.0,286046998.0,N
1522683835.8,286046997.7,N
1522683855.6,286046997.2,N
1522683875.5,286046995.3,N
1522683895.3,286046995.3,N
1522683915.2,286046995.3,N
1522683935.9,286046996.2,N
1522683955.7,286046993.7,N
1522683975.6,286046993.7,N
1522683995.4,286046998.0,N
1522684015.2,286046996.8,N
1522684035.1,286046997.2,N
1522684036.0,286046997.2,N
1522684055.8,286046996.7,N
1522684075.7,286046995.3,N
1522684095.5,286046995.0,N
1522684115.3,286046996.2,N
1522684135.2,286046995.0,N
1522684155.0,286046995.7,N
1522684155.9,286046995.7,N
1522684175.8,286046995.4,N
1522684195.6,286046995.4,N
1522684215.4,286046997.1,N
1522684235.3,286046997.3,N
1522684255.1,286046997.7,N
1522684275.9,286046995.7,Y
1522684295.7,286046998.8,P
1522684315.5,286046998.1,N
1522684335.4,286046998.5,N
1522684355.2,286047000.4,N
1522684375.1,286046999.7,N
1522684376.0,286046999.7,N
1522684395.8,286046999.7,N
1522684415.6,286046998.1,N
1522684435.5,286046998.9,N
1522684455.3,286046997.8,N
1522684475.1,286046995.7,Y
1522684495.9,286046996.7,P
1522684515.7,286046999.6,N
1522684535.6,286046999.5,N
1522684555.4,286046998.4,N
1522684575.2,286046997.0,N
1522684595.1,286046996.6,Y
1522684596.0,286046996.6,P
1522684615.8,286047000.5,N
1522684635.7,286046999.7,N
1522684655.5,286047001.2,N
1522684675.3,286046998.1,N
1522684695.2,286047002.7,N
1522684715.0,286047001.0,N
1522684715.9,286047001.0,N
1522684735.7,286047001.2,N
1522684755.6,286047000.8,N
1522684775.4,286047000.5,N
1522684795.3,286047000.9,N
